STARLINK-6039 (56319 NORAD) Tracking and Keplerian Element Data

This shows tracking and keplerian element data for the satellite.

Feedback or suggestion? Click here.




ElementValue
Catalog56319
NameSTARLINK-6039
Epoch Orbit184
Epoch Day127.25001157
Epoch Year2023
RAAN126.7428
Inclination97.6629
Eccentricity0.000146
Argument of Perigee104.0675
Mean Anonmoly190.6907
Mean Motion15.67493857
Decay Rate-0.00779563
L11 56319U 23058C 23127.25001157 -.00779563 00000+0 -79094-2 0 9997
L22 56319 97.6629 126.7428 0001460 104.0675 190.6907 15.67493857 1849



Live tracking and technical data element details for STARLINK-6039 (NORAD 56319). STARLINK-6039 can be tracked NOW for your location showing map with azimuth and elevation plus other details from your city location.







IsCatalogInMostPopularTable: catalog: 56319, numindb: 5
Update: records affected: 1



GetName: 56319 STARLINK-6039

Hit Count: updated at: Wed, 07 Jun 2023 08:04:13 GMT